Ellsworth AFB, SD

7:09 AM MDT on June 26, 2017 (GMT -0600)
Ellsworth Air Force Base

Weather History for KRCA - May, 2013

Change the Weather History Date:

Tuesday, May 21, 2013

  Actual Average Record
Temperature  
Mean Temperature 45 °F -  
Max Temperature 48 °F 65 °F 86 °F (2007)
Min Temperature 42 °F 44 °F 34 °F (2017)
Degree Days  
Heating Degree Days 20    
Moisture  
Dew Point 42 °F    
Average Humidity 85    
Maximum Humidity 100    
Minimum Humidity 71    
Precipitation  
Precipitation 0.09 in - - ()
Sea Level Pressure  
Sea Level Pressure 29.89 in    
Wind  
Wind Speed 23 mph (NNW)    
Max Wind Speed 31 mph    
Max Gust Speed 43 mph    
Visibility 10 miles    
Events Rain    
Averages and records for this station are not official NWS values.
T = Trace of Precipitation, MM = Missing Value Source: NWS Daily Summary

Daily Weather History Graph

Daily Weather History Graph

Search for Another Location

Airport or City:

Trip Planner

Search our weather history database for the weather conditions in past years. The results will help you decide how hot, cold, wet, or windy it might be!

Date:

Astronomy

May. 21, 2013 Rise Set
Actual Time 5:19 AM MDT 8:19 PM MDT
Civil Twilight 4:45 AM MDT 8:53 PM MDT
Nautical Twilight 4:01 AM MDT 9:37 PM MDT
Astronomical Twilight 3:09 AM MDT 10:29 PM MDT
Moon 4:28 PM MDT (5/21) 2:57 AM MDT (5/21)
Length of Visible Light 16h 08m
Length of Day
14h 59m
Waxing Gibbous, 84% of the Moon is Illuminated
May 21
Waxing Gibbous
May 24
Full
May 31
Last Quarter
Jun 8
New
Jun 16
First Quarter

Hourly Weather History & Observations

Time (MDT) Temp. Windchill Dew Point Humidity Pressure Visibility Wind Dir Wind Speed Gust Speed Precip Events Conditions
12:04 AM 46.4 °F 37.2 °F 44.6 °F 93% 29.84 in 10.0 mi NNW 29.9 mph 38.0 mph N/A Rain Light Rain
12:14 AM 46.4 °F 37.9 °F 44.6 °F 93% 29.85 in 9.0 mi North 25.3 mph 36.8 mph N/A Rain Light Rain
12:28 AM 46.4 °F 38.1 °F 44.6 °F 93% 29.85 in 10.0 mi North 24.2 mph 36.8 mph N/A   Overcast
12:38 AM 46.4 °F 38.1 °F 42.8 °F 87% 29.85 in 10.0 mi North 24.2 mph 33.4 mph N/A Rain Light Rain
12:43 AM 46.4 °F 37.9 °F 42.8 °F 87% 29.85 in 10.0 mi North 25.3 mph 34.5 mph N/A Rain Light Rain
12:48 AM 46.4 °F 38.3 °F 42.8 °F 87% 29.85 in 10.0 mi NNW 23.0 mph 34.5 mph N/A Rain Light Rain
12:53 AM 46.4 °F 37.5 °F 42.8 °F 87% 29.84 in 10.0 mi NNW 27.6 mph 33.4 mph N/A Rain Light Rain
12:58 AM 46.4 °F 37.9 °F 43.3 °F 89% 29.86 in 10.0 mi North 25.3 mph 33.4 mph 0.00 in Rain Light Rain
12:59 AM 46.4 °F 38.3 °F 42.8 °F 87% 29.84 in 10.0 mi NNW 23.0 mph 33.4 mph N/A   Overcast
1:04 AM 46.4 °F 38.3 °F 42.8 °F 87% 29.85 in 10.0 mi North 23.0 mph 33.4 mph N/A   Overcast
1:09 AM 46.4 °F 38.5 °F 42.8 °F 87% 29.85 in 10.0 mi North 21.9 mph 28.8 mph N/A   Overcast
1:19 AM 46.4 °F 38.5 °F 42.8 °F 87% 29.85 in 10.0 mi North 21.9 mph 29.9 mph N/A   Overcast
1:20 AM 46.4 °F 38.5 °F 42.8 °F 87% 29.85 in 10.0 mi North 21.9 mph 29.9 mph N/A Rain Light Rain
1:25 AM 46.4 °F 38.5 °F 42.8 °F 87% 29.85 in 10.0 mi North 21.9 mph 28.8 mph N/A Rain Light Rain
1:35 AM 46.4 °F 38.5 °F 44.6 °F 93% 29.85 in 10.0 mi North 21.9 mph 28.8 mph N/A Rain Light Rain
1:42 AM 46.4 °F 38.3 °F 42.8 °F 87% 29.84 in 10.0 mi North 23.0 mph 33.4 mph N/A   Overcast
1:52 AM 44.6 °F 35.7 °F 42.8 °F 93% 29.84 in 10.0 mi North 24.2 mph 32.2 mph N/A   Overcast
1:53 AM 44.6 °F 35.7 °F 42.8 °F 93% 29.84 in 10.0 mi North 24.2 mph 32.2 mph N/A Rain Light Rain
1:58 AM 45.3 °F 36.9 °F 43.2 °F 92% 29.86 in 10.0 mi North 23.0 mph 32.2 mph 0.00 in Rain Light Rain
2:03 AM 44.6 °F 36.1 °F 42.8 °F 93% 29.85 in 10.0 mi North 21.9 mph 32.2 mph N/A Rain Light Rain
2:06 AM 44.6 °F 36.1 °F 42.8 °F 93% 29.85 in 10.0 mi North 21.9 mph 31.1 mph N/A Rain Light Rain
2:11 AM 44.6 °F 36.4 °F 42.8 °F 93% 29.85 in 10.0 mi North 20.7 mph 31.1 mph N/A Rain Light Rain
2:16 AM 44.6 °F 36.1 °F 42.8 °F 93% 29.85 in 10.0 mi North 21.9 mph 27.6 mph N/A Rain Light Rain
2:19 AM 44.6 °F 36.6 °F 42.8 °F 93% 29.85 in 10.0 mi North 19.6 mph 27.6 mph N/A Rain Light Rain
2:24 AM 44.6 °F 36.4 °F 42.8 °F 93% 29.85 in 10.0 mi North 20.7 mph 28.8 mph N/A Rain Light Rain
2:34 AM 44.6 °F 36.1 °F 42.8 °F 93% 29.84 in 10.0 mi North 21.9 mph 28.8 mph N/A Rain Light Rain
2:39 AM 44.6 °F 36.4 °F 42.8 °F 93% 29.84 in 10.0 mi North 20.7 mph 28.8 mph N/A Rain Light Rain
2:49 AM 44.6 °F 36.1 °F 42.8 °F 93% 29.85 in 10.0 mi North 21.9 mph 28.8 mph N/A Rain Light Rain
2:54 AM 44.6 °F 36.1 °F 42.8 °F 93% 29.84 in 10.0 mi North 21.9 mph 28.8 mph N/A Rain Light Rain
2:58 AM 45.0 °F 36.9 °F 43.2 °F 93% 29.87 in 10.0 mi North 20.7 mph 31.1 mph 0.01 in Rain Light Rain
3:03 AM 44.6 °F 36.4 °F 42.8 °F 93% 29.85 in 10.0 mi North 20.7 mph 32.2 mph N/A Rain Light Rain
3:13 AM 44.6 °F 36.4 °F 42.8 °F 93% 29.84 in 9.0 mi North 20.7 mph 27.6 mph N/A Rain Light Rain
3:48 AM 44.6 °F 36.6 °F 42.8 °F 93% 29.85 in 10.0 mi North 19.6 mph 28.8 mph N/A Rain Light Rain
3:53 AM 44.6 °F 36.4 °F 42.8 °F 93% 29.85 in 10.0 mi North 20.7 mph 28.8 mph N/A Rain Light Rain
3:58 AM 44.6 °F 36.4 °F 42.8 °F 93% 29.87 in 10.0 mi North 20.7 mph 28.8 mph 0.01 in Rain Light Rain
4:12 AM 44.6 °F 36.9 °F 42.8 °F 93% 29.85 in 10.0 mi North 18.4 mph 25.3 mph N/A Rain Light Rain
4:27 AM 44.6 °F 36.4 °F 42.8 °F 93% 29.84 in 10.0 mi North 20.7 mph 29.9 mph N/A Rain Light Rain
4:58 AM 43.9 °F 35.0 °F 42.1 °F 93% 29.87 in 10.0 mi North 23.0 mph 33.4 mph 0.02 in Rain Light Rain
5:18 AM 42.8 °F 34.0 °F 41.0 °F 93% 29.85 in 10.0 mi North 20.7 mph 31.1 mph N/A Rain Light Rain
5:28 AM 42.8 °F 34.5 °F 42.8 °F 100% 29.85 in 10.0 mi North 18.4 mph 27.6 mph N/A Rain Light Rain
5:48 AM 42.8 °F 33.5 °F 41.0 °F 93% 29.85 in 10.0 mi North 23.0 mph 31.1 mph N/A Rain Light Rain
5:58 AM 43.0 °F 32.9 °F 41.2 °F 93% 29.88 in 10.0 mi North 27.6 mph 33.4 mph 0.01 in Rain Light Rain
6:03 AM 42.8 °F 33.5 °F 41.0 °F 93% 29.85 in 10.0 mi North 23.0 mph - N/A Rain Light Rain
6:23 AM 42.8 °F 33.1 °F 41.0 °F 93% 29.86 in 10.0 mi North 25.3 mph 32.2 mph N/A Rain Light Rain
6:58 AM 42.3 °F 32.8 °F 40.5 °F 93% 29.89 in 10.0 mi North 23.0 mph 33.4 mph 0.02 in Rain Light Rain
7:18 AM 42.8 °F 33.1 °F 41.0 °F 93% 29.86 in 10.0 mi North 25.3 mph 33.4 mph N/A Rain Light Rain
7:23 AM 42.8 °F 32.9 °F 41.0 °F 93% 29.86 in 10.0 mi North 26.5 mph 33.4 mph N/A Rain Light Rain
7:48 AM 42.8 °F 32.7 °F 41.0 °F 93% 29.87 in 10.0 mi North 27.6 mph 36.8 mph N/A Rain Light Rain
7:53 AM 42.8 °F 33.8 °F 41.0 °F 93% 29.87 in 10.0 mi North 21.9 mph 36.8 mph N/A Rain Light Rain
7:55 AM 42.8 °F 33.1 °F 41.0 °F 93% 29.87 in 10.0 mi North 25.3 mph 33.4 mph N/A Rain Light Rain
7:58 AM 42.8 °F 33.5 °F 41.0 °F 93% 29.90 in 10.0 mi North 23.0 mph 33.4 mph 0.02 in Rain Light Rain
8:08 AM 42.8 °F 33.1 °F 41.0 °F 93% 29.87 in 10.0 mi North 25.3 mph 31.1 mph N/A Rain Light Rain
8:13 AM 42.8 °F 32.9 °F 41.0 °F 93% 29.87 in 10.0 mi North 26.5 mph 32.2 mph N/A Rain Light Rain
8:43 AM 44.6 °F 34.9 °F 41.0 °F 87% 29.88 in 10.0 mi North 28.8 mph 38.0 mph N/A Rain Light Rain
8:58 AM 44.2 °F 34.6 °F 41.4 °F 90% 29.91 in 10.0 mi North 27.6 mph 35.7 mph 0.00 in Rain Light Rain
9:03 AM 44.6 °F 35.3 °F 41.0 °F 87% 29.88 in 10.0 mi North 26.5 mph 33.4 mph N/A Rain Light Rain
9:04 AM 44.6 °F 35.5 °F 41.0 °F 87% 29.88 in 10.0 mi North 25.3 mph 33.4 mph N/A   Overcast
9:58 AM 46.2 °F 37.5 °F 40.5 °F 80% 29.92 in 10.0 mi NNW 26.5 mph 42.6 mph 0.00 in   Overcast
10:08 AM 46.4 °F 37.2 °F 41.0 °F 81% 29.89 in 10.0 mi NNW 29.9 mph 41.4 mph N/A   Overcast
10:38 AM 46.4 °F 38.1 °F 41.0 °F 81% 29.89 in 10.0 mi NNW 24.2 mph 34.5 mph N/A   Overcast
10:53 AM 48.2 °F - 41.0 °F 76% 29.90 in 10.0 mi North 25.3 mph 34.5 mph N/A   Overcast
10:58 AM 47.8 °F - 40.3 °F 75% 29.92 in 10.0 mi NNW 27.6 mph 35.7 mph N/A   Overcast
11:03 AM 48.2 °F - 41.0 °F 76% 29.89 in 10.0 mi NNW 28.8 mph 35.7 mph N/A   Overcast
11:18 AM 48.2 °F - 39.2 °F 71% 29.90 in 10.0 mi NNW 31.1 mph 39.1 mph N/A   Overcast
11:23 AM 48.2 °F - 41.0 °F 76% 29.90 in 10.0 mi NNW 27.6 mph 39.1 mph N/A   Overcast
11:28 AM 48.2 °F - 41.0 °F 76% 29.90 in 10.0 mi NNW 26.5 mph 35.7 mph N/A   Overcast
11:33 AM 48.2 °F - 41.0 °F 76% 29.90 in 10.0 mi NNW 21.9 mph 35.7 mph N/A   Overcast
11:45 AM 46.4 °F 38.1 °F 41.0 °F 81% 29.91 in 10.0 mi NNW 24.2 mph 32.2 mph N/A   Light Drizzle
11:50 AM 46.4 °F 37.9 °F 41.0 °F 81% 29.91 in 10.0 mi North 25.3 mph 34.5 mph N/A   Light Drizzle
11:56 AM 46.4 °F 38.7 °F 39.2 °F 76% 29.91 in 10.0 mi NNW 20.7 mph 34.5 mph N/A   Overcast
11:59 AM 46.4 °F 37.9 °F 41.0 °F 81% 29.94 in 10.0 mi NNW 25.3 mph 34.5 mph 0.00 in   Overcast
12:39 PM 46.4 °F 38.1 °F 41.0 °F 81% 29.91 in 10.0 mi NNW 24.2 mph 32.2 mph N/A   Overcast
12:58 PM 47.1 °F - 40.1 °F 77% 29.94 in 10.0 mi NNW 25.3 mph 33.4 mph 0.00 in   Overcast
1:13 PM 48.2 °F - 41.0 °F 76% 29.91 in 10.0 mi NNW 26.5 mph 34.5 mph N/A   Overcast
1:28 PM 48.2 °F - 41.0 °F 76% 29.91 in 10.0 mi North 23.0 mph 34.5 mph N/A   Overcast
1:48 PM 48.2 °F - 41.0 °F 76% 29.91 in 10.0 mi North 23.0 mph 38.0 mph N/A   Overcast
1:58 PM 48.9 °F - 40.5 °F 73% 29.93 in 10.0 mi North 27.6 mph 39.1 mph N/A   Overcast
2:48 PM 48.2 °F - 39.2 °F 71% 29.91 in 10.0 mi NNW 28.8 mph 35.7 mph N/A   Overcast
2:53 PM 48.2 °F - 39.2 °F 71% 29.91 in 10.0 mi NNW 24.2 mph 35.7 mph N/A   Overcast
2:58 PM 48.4 °F - 40.1 °F 73% 29.94 in 10.0 mi NNW 26.5 mph 33.4 mph N/A   Overcast
3:08 PM 48.2 °F - 41.0 °F 76% 29.91 in 10.0 mi NNW 31.1 mph 38.0 mph N/A   Overcast
3:18 PM 48.2 °F - 41.0 °F 76% 29.91 in 10.0 mi NNW 26.5 mph 33.4 mph N/A   Overcast
3:38 PM 48.2 °F - 41.0 °F 76% 29.92 in 10.0 mi NNW 25.3 mph 32.2 mph N/A   Overcast
3:43 PM 48.2 °F - 41.0 °F 76% 29.92 in 10.0 mi NNW 26.5 mph 32.2 mph N/A   Overcast
3:53 PM 48.2 °F - 41.0 °F 76% 29.92 in 10.0 mi NNW 25.3 mph 31.1 mph N/A   Overcast
3:58 PM 47.8 °F - 40.3 °F 75% 29.95 in 10.0 mi NNW 21.9 mph 31.1 mph N/A   Overcast
4:38 PM 48.2 °F - 41.0 °F 76% 29.92 in 10.0 mi NNW 19.6 mph - N/A   Overcast
4:43 PM 48.2 °F - 41.0 °F 76% 29.92 in 10.0 mi NNW 23.0 mph 29.9 mph N/A   Overcast
4:53 PM 48.2 °F - 41.0 °F 76% 29.92 in 10.0 mi NNW 23.0 mph 29.9 mph N/A   Overcast
4:58 PM 47.5 °F - 41.4 °F 79% 29.95 in 10.0 mi NNW 19.6 mph 29.9 mph N/A   Overcast
5:03 PM 48.2 °F - 41.0 °F 76% 29.92 in 10.0 mi NNW 23.0 mph 29.9 mph N/A   Overcast
5:58 PM 46.9 °F - 42.1 °F 83% 29.96 in 10.0 mi NNW 19.6 mph 28.8 mph N/A   Overcast
6:18 PM 48.2 °F - 41.0 °F 76% 29.91 in 10.0 mi NNW 21.9 mph - N/A   Overcast
6:23 PM 48.2 °F - 42.8 °F 82% 29.91 in 10.0 mi NNW 18.4 mph 26.5 mph N/A   Overcast
6:58 PM 47.5 °F - 41.4 °F 79% 29.95 in 10.0 mi North 18.4 mph 24.2 mph N/A   Overcast
7:03 PM 48.2 °F - 41.0 °F 76% 29.92 in 10.0 mi North 18.4 mph 27.6 mph N/A   Overcast
7:08 PM 48.2 °F - 41.0 °F 76% 29.92 in 10.0 mi NNW 20.7 mph 27.6 mph N/A   Overcast
7:23 PM 48.2 °F - 41.0 °F 76% 29.92 in 10.0 mi North 16.1 mph 25.3 mph N/A   Overcast
7:28 PM 48.2 °F - 41.0 °F 76% 29.93 in 10.0 mi North 17.3 mph 25.3 mph N/A   Overcast
7:33 PM 48.2 °F - 41.0 °F 76% 29.93 in 10.0 mi North 18.4 mph 24.2 mph N/A   Overcast
7:58 PM 46.9 °F - 41.5 °F 81% 29.97 in 10.0 mi North 15.0 mph - N/A   Overcast
8:43 PM 46.4 °F 39.8 °F 42.8 °F 87% 29.94 in 10.0 mi North 16.1 mph 19.6 mph N/A   Overcast
8:48 PM 46.4 °F 39.8 °F 41.0 °F 81% 29.95 in 10.0 mi North 16.1 mph 21.9 mph N/A   Overcast
8:58 PM 46.8 °F - 41.5 °F 82% 29.98 in 10.0 mi North 15.0 mph - N/A   Overcast
9:23 PM 46.4 °F 39.8 °F 41.0 °F 81% 29.95 in 10.0 mi NNW 16.1 mph - N/A   Overcast
9:58 PM 46.4 °F 40.7 °F 41.9 °F 84% 29.99 in 10.0 mi North 12.7 mph - N/A   Overcast
10:03 PM 46.4 °F 41.1 °F 42.8 °F 87% 29.96 in 10.0 mi NNW 11.5 mph - N/A   Overcast
10:23 PM 46.4 °F 41.5 °F 42.8 °F 87% 29.96 in 10.0 mi NNW 10.4 mph - N/A   Overcast
10:38 PM 46.4 °F 42.4 °F 42.8 °F 87% 29.97 in 10.0 mi North 8.1 mph - N/A   Overcast
10:43 PM 46.4 °F 41.9 °F 42.8 °F 87% 29.97 in 10.0 mi North 9.2 mph - N/A   Overcast
10:58 PM 45.9 °F 40.8 °F 42.8 °F 89% 29.99 in 10.0 mi North 10.4 mph - N/A   Overcast
11:21 PM 46.4 °F 41.1 °F 42.8 °F 87% 29.96 in 10.0 mi North 11.5 mph - N/A   Overcast
11:26 PM 46.4 °F 41.1 °F 42.8 °F 87% 29.96 in 10.0 mi North 11.5 mph - N/A   Overcast
11:56 PM 44.6 °F 38.1 °F 42.8 °F 93% 29.96 in 10.0 mi North 13.8 mph - N/A   Overcast
11:58 PM 45.3 °F 39.0 °F 42.8 °F 91% 29.99 in 10.0 mi North 13.8 mph - N/A   Overcast